Weather in Lyubokhna

Russia / Bryansk Oblast     53°30′23″N   34°23′03″E
temp.,
°C
wind,
m/s
gust,
m/s
humid.,
%
clouds,
%
prec.,
mm/h
press.,
hPa
HPBL,
m
23 april, fri
fri2300:00+7s412905 0.3 1015307
03:00+6s3119478 0.4 1014327
06:00+6s3129587 0.6 1014393
09:00+10ssw51083100 1.0 1013921
12:00+5wnw4795100 4.5 1014374
15:00+7w3579100 7.5 1015930
18:00+9wsw1368100 0.1 1013344
21:00+6w1175100 0.1 101324
24 april, sat
sat2400:00+5w2681100 0.1 1012170
03:00+4w258895 0.1 1011153
06:00+1wsw259354 0.1 1011133
09:00+5w467566 0.1 1010909
12:00+6wsw5659100 1.0 10101611
15:00+5w6769100 2.4 10101393
18:00+4wnw61177100 1.3 10121262
21:00+2w5128060 1.3 1013598
25 april, sun
sun2500:00+1wsw412855 0.0 1014500
03:00−1wsw411915 0.0 1014379
06:00−1sw410946 0.0 1014389
09:00+4wsw4868100 0.0 1013894
12:00+4w4672100 0.1 10131007
15:00+2wsw249175 3.0 1013348
18:00+5wsw486391 0.6 10121000
21:000wsw38875 0.6 1014176
26 april, mon
mon2600:00−1sw39915 0.0 1015205
03:00−1sw39935 0.0 1014239
06:00−2sw27945 0.0 1014185
09:00+4wsw36665 0.0 1014900
12:00+7wsw3542100 0.1 10132299
15:00+7wsw344695 0.2 10121702
18:00+5sw2369100 1.1 1011838
21:00+2wsw1183100 1.4 101110
27 april, tue
tue2700:00+1wsw2391100 0.2 101076
03:000wsw249096 0.2 1010101
06:00−2wsw279384 0.0 1010190
09:00+3w457652 0.0 1010852
12:00+5w4665100 0.9 10101502
15:00+7wsw465490 1.4 10101768
18:00+6w465978 0.7 10091307
21:00+1w28845 0.7 1011172